Gary, IN

12:55 AM CST on February 23, 2018 (GMT -0600)
Gary / Chicago

Weather History for KGYY - December, 2013

Change the Weather History Date:

Friday, December 13, 2013

  Actual Average Record
Temperature  
Mean Temperature 24 °F -  
Max Temperature 32 °F 37 °F 64 °F (2015)
Min Temperature 15 °F 23 °F -3 °F (1958)
Degree Days  
Heating Degree Days 42    
Moisture  
Dew Point 17 °F    
Average Humidity 74    
Maximum Humidity 91    
Minimum Humidity 51    
Precipitation  
Precipitation 0.04 in - - ()
Sea Level Pressure  
Sea Level Pressure 30.15 in    
Wind  
Wind Speed 3 mph (ESE)    
Max Wind Speed 13 mph    
Max Gust Speed -    
Visibility 8 miles    
Events Snow    
Averages and records for this station are not official NWS values.
T = Trace of Precipitation, MM = Missing Value Source: NWS Daily Summary

Daily Weather History Graph

Daily Weather History Graph

Search for Another Location

Airport or City:

Trip Planner

Search our weather history database for the weather conditions in past years. The results will help you decide how hot, cold, wet, or windy it might be!

Date:

Astronomy

Dec. 13, 2013 Rise Set
Actual Time 7:08 AM CST 4:19 PM CST
Civil Twilight 6:36 AM CST 4:51 PM CST
Nautical Twilight 6:01 AM CST 5:26 PM CST
Astronomical Twilight 5:28 AM CST 5:59 PM CST
Moon 2:04 PM CST (12/13) 3:28 AM CST (12/13)
Length of Visible Light 10h 14m
Length of Day
9h 11m
Waxing Gibbous, 88% of the Moon is Illuminated
Dec 13
Waxing Gibbous
Dec 17
Full
Dec 25
Last Quarter
Jan 1
New
Jan 7
First Quarter

Hourly Weather History & Observations

Time (CST) Temp. Windchill Dew Point Humidity Pressure Visibility Wind Dir Wind Speed Gust Speed Precip Events Conditions
12:15 AM 17.4 °F 10.4 °F 12.0 °F 79% 30.22 in 10.0 mi South 4.6 mph - N/A   Clear
12:35 AM 17.6 °F 12.3 °F 12.0 °F 79% 30.21 in 10.0 mi South 3.5 mph - N/A   Clear
12:55 AM 17.4 °F - 11.3 °F 77% 30.20 in 10.0 mi Calm Calm - N/A   Clear
1:15 AM 16.9 °F - 11.3 °F 79% 30.20 in 10.0 mi Calm Calm - N/A   Clear
1:35 AM 16.2 °F - 10.8 °F 79% 30.20 in 10.0 mi Calm Calm - N/A   Scattered Clouds
1:55 AM 16.7 °F - 11.5 °F 80% 30.20 in 10.0 mi Calm Calm - N/A   Clear
2:15 AM 15.8 °F - 10.8 °F 80% 30.20 in 10.0 mi Calm Calm - N/A   Clear
2:35 AM 15.4 °F - 10.6 °F 81% 30.18 in 10.0 mi Calm Calm - N/A   Clear
2:55 AM 15.8 °F - 11.7 °F 84% 30.18 in 10.0 mi Calm Calm - N/A   Scattered Clouds
3:15 AM 16.3 °F - 11.3 °F 81% 30.19 in 10.0 mi Calm Calm - N/A   Mostly Cloudy
3:35 AM 16.7 °F - 11.8 °F 81% 30.19 in 10.0 mi Calm Calm - N/A   Mostly Cloudy
4:45 AM 19.4 °F - 12.2 °F 74% 30.18 in 15.0 mi Calm Calm - N/A   Mostly Cloudy
5:45 AM 17.6 °F - 12.2 °F 79% 30.17 in 15.0 mi Calm Calm - N/A   Scattered Clouds
6:45 AM 15.8 °F - 10.4 °F 79% 30.19 in 15.0 mi Calm Calm - N/A   Scattered Clouds
7:45 AM 17.6 °F - 10.4 °F 73% 30.20 in 15.0 mi Calm Calm - N/A   Scattered Clouds
8:45 AM - - - N/A% 30.20 in 10.0 mi South 4.6 mph - N/A   Mostly Cloudy
9:45 AM 23.0 °F - 12.2 °F 63% 30.21 in 10.0 mi Calm Calm - N/A   Mostly Cloudy
10:45 AM 24.8 °F - 14.0 °F 64% 30.18 in 10.0 mi Calm Calm - N/A   Mostly Cloudy
11:45 AM 30.2 °F 25.4 °F 15.8 °F 55% 30.14 in 10.0 mi Variable 4.6 mph - N/A   Scattered Clouds
12:45 PM 32.0 °F 27.5 °F 15.8 °F 51% 30.12 in 10.0 mi Variable 4.6 mph - N/A   Mostly Cloudy
1:45 PM 32.0 °F 27.5 °F 15.8 °F 51% 30.12 in 10.0 mi Variable 4.6 mph - N/A   Mostly Cloudy
2:45 PM 32.0 °F - 15.8 °F 51% 30.12 in 10.0 mi North - - N/A   Overcast
3:45 PM 30.2 °F 26.7 °F 17.6 °F 60% 30.12 in 10.0 mi Variable 3.5 mph - N/A   Overcast
4:45 PM 30.2 °F 25.4 °F 17.6 °F 60% 30.13 in 10.0 mi Variable 4.6 mph - N/A   Overcast
5:45 PM 30.2 °F 25.4 °F 19.4 °F 64% 30.14 in 10.0 mi Variable 4.6 mph - N/A   Overcast
6:45 PM 30.2 °F 20.8 °F 17.6 °F 60% 30.14 in 10.0 mi East 11.5 mph - N/A   Overcast
7:45 PM 30.2 °F 20.2 °F 19.4 °F 64% 30.13 in 10.0 mi East 12.7 mph - N/A   Overcast
8:15 PM 30.6 °F 24.7 °F 19.4 °F 63% 30.12 in 10.0 mi East 5.8 mph - N/A   Overcast
8:35 PM 30.7 °F 24.9 °F 19.6 °F 63% 30.13 in 10.0 mi East 5.8 mph - N/A   Overcast
8:45 PM 30.2 °F 21.3 °F 19.4 °F 64% 30.12 in 7.0 mi ESE 10.4 mph - N/A   Overcast
8:55 PM 30.9 °F 25.2 °F 20.1 °F 64% 30.12 in 7.0 mi ESE 5.8 mph - N/A   Overcast
9:10 PM 30.2 °F 25.4 °F 23.0 °F 75% 30.12 in 2.0 mi ESE 4.6 mph - N/A Snow Light Snow
9:15 PM 30.2 °F 23.4 °F 23.0 °F 75% 30.12 in 4.0 mi East 6.9 mph - N/A Snow Light Snow
9:35 PM 29.3 °F 23.2 °F 24.8 °F 83% 30.12 in 2.5 mi East 5.8 mph - N/A Snow Light Snow
9:45 PM 28.4 °F 23.3 °F 24.8 °F 86% 30.12 in 2.0 mi ESE 4.6 mph - N/A Snow Light Snow
9:55 PM 29.3 °F 24.3 °F 25.7 °F 86% 30.12 in 1.5 mi East 4.6 mph - N/A Snow Light Snow
10:15 PM 29.3 °F 24.3 °F 26.2 °F 88% 30.12 in 1.0 mi East 4.6 mph - 0.01 in Snow Light Snow
10:35 PM 29.3 °F 24.3 °F 26.6 °F 90% 30.12 in 1.2 mi East 4.6 mph - 0.01 in Snow Light Snow
10:55 PM 29.3 °F 22.3 °F 27.0 °F 91% 30.12 in 1.2 mi ESE 6.9 mph - 0.02 in   Scattered Clouds
11:15 PM 29.3 °F 23.2 °F 27.0 °F 91% 30.12 in 1.5 mi ESE 5.8 mph - N/A Snow Light Snow
11:35 PM 29.8 °F 23.9 °F 27.3 °F 90% 30.12 in 1.8 mi ESE 5.8 mph - 0.01 in Snow Light Snow
11:55 PM 29.8 °F 23.0 °F 27.3 °F 90% 30.11 in 3.0 mi East 6.9 mph - 0.02 in Snow Light Snow